Weather observations for the past three days for
Rogue Valley International Airport
Imperial (Metric)
Date Time (pdt) Wind (mph) Vis. (mi.) Weather Sky Cond. Temperature (ºF) Relative Humidity Wind Chill (°F) Heat Index (°F) Pressure Precipitation (in)
Air Dwpt 6 hour altimeter (in) sea level (mb) 1 hr 3 hr 6 hr
Max. Min.
21 14:53 W 12 G 22 10.00 Fair CLR 90 57.9 34% 89 29.97 1013.5
21 13:53 W 10 G 21 10.00 Fair CLR 88 57.9 36% 87 29.98 1013.9
21 12:53 W 14 G 20 10.00 Fair CLR 87.1 57.9 37% 86 29.99 1014.3
21 11:53 W 12 10.00 Fair CLR 82.9 57.9 43% 83 30.01 1014.7
21 10:53 Calm 10.00 Fair CLR 80.1 57 80.1 66.9 45% 80 30.02 1015.1
21 09:53 Calm 10.00 Fair CLR 77 57 50% 79 30.03 1015.5
21 08:53 W 5 10.00 Fair CLR 73.9 57 56% 30.04 1015.9
21 07:53 NW 5 10.00 Fair CLR 72 57 59% 30.04 1015.8
21 06:53 NW 5 10.00 Fair CLR 70 57 64% 30.03 1015.5
21 05:53 NW 7 10.00 Fair CLR 68 57 68% 30.02 1015.3
21 04:53 NW 7 10.00 Fair CLR 69.1 57 81 69.1 66% 30.01 1014.7
21 03:53 NW 3 10.00 Fair CLR 72 57 59% 29.99 1014.1
21 02:53 N 3 10.00 Fair CLR 73 57 57% 29.99 1013.9
21 01:53 Vrbl 3 10.00 Fair CLR 78.1 57.9 50% 79 29.98 1013.5
21 00:53 W 8 10.00 Fair CLR 78.1 57.9 50% 79 29.97 1013.5
20 23:53 NW 5 10.00 Thunderstorm CLR 79 55 44% 80 29.99 1014.1
20 22:53 Calm 10.00 Fair CLR 81 55 99 79 41% 81 29.97 1013.3
20 21:53 NW 6 9.00 Fair CLR 82 55 40% 81 29.95 1012.9
20 20:53 NW 9 7.00 Fair CLR 84 55 37% 83 29.93 1012.4
20 19:53 NW 9 5.00 Haze Smoke SCT045 89.1 54 30% 87 29.92 1011.7
20 18:53 W 12 2.50 Haze Smoke OVC036 93.9 55 27% 92 29.91 1011.3
20 17:53 W 15 G 18 4.00 Haze Smoke CLR 97 55.9 25% 95 29.9 1011.2
20 16:53 NW 12 8.00 Smoke CLR 99 55 99 81 23% 97 29.92 1011.6
20 15:53 NW 7 8.00 Smoke CLR 98.1 51.1 20% 95 29.94 1012.4
20 14:53 Vrbl 6 5.00 Haze Smoke CLR 95 51.1 23% 92 29.96 1013.3
20 13:53 Vrbl 3 4.00 Haze Smoke CLR 91.9 50 24% 89 29.99 1014.1
20 12:53 Vrbl 3 8.00 Smoke CLR 88 52 29% 86 30.02 1015.0
20 11:53 Vrbl 5 10.00 Smoke CLR 86 53.1 32% 84 30.04 1015.8
20 10:53 N 6 8.00 Smoke CLR 82 51.1 82.9 63 34% 81 30.06 1016.6
20 09:53 Vrbl 5 7.00 Fair CLR 77 51.1 40% 78 30.08 1017.4
20 08:53 Calm 9.00 Fair CLR 72 50 46% 30.1 1018.0
20 07:53 N 5 10.00 Fair CLR 68 48.9 51% 30.1 1018.0
20 06:53 Calm 10.00 Fair CLR 64 48.9 58% 30.1 1018.0
20 05:53 Calm 10.00 Fair CLR 64 48.9 58% 30.1 1017.7
20 04:53 Calm 10.00 Fair CLR 63 48.9 80.1 63 60% 30.09 1017.6
20 03:53 Calm 10.00 Fair CLR 66 48.9 54% 30.09 1017.5
20 02:53 S 3 10.00 Fair CLR 71.1 48 44% 30.09 1017.4
20 01:53 S 6 10.00 Fair CLR 72 48.9 44% 30.08 1017.3
20 00:53 Calm 10.00 Fair CLR 73 46.9 40% 30.08 1017.3
19 23:53 Calm 10.00 Fair CLR 75.9 46.9 36% 78 30.08 1017.2
19 22:53 Calm 10.00 Fair CLR 78.1 46 98.1 75.9 32% 78 30.07 1017.1
19 21:53 N 3 10.00 Fair CLR 82.9 45 26% 81 30.07 1016.9
19 20:53 NW 6 10.00 Fair CLR 82.9 45 26% 81 30.04 1016.1
19 19:53 N 9 10.00 Fair CLR 91 46 21% 87 30.03 1015.5
19 18:53 N 13 10.00 Fair CLR 96.1 45 17% 92 30.02 1015.2
19 17:53 W 8 10.00 Fair CLR 97 41 14% 93 30.02 1015.2
19 16:53 NW 12 10.00 Fair CLR 98.1 41 98.1 80.1 14% 94 30.03 1015.5
19 15:53 NW 3 10.00 Fair CLR 97 39 13% 92 30.04 1016.0
19 14:53 Vrbl 7 10.00 Fair CLR 95 37 13% 90 30.07 1016.8
19 13:53 N 8 10.00 Fair CLR 93 39 15% 89 30.09 1017.4
19 12:53 Vrbl 6 10.00 Fair CLR 89.1 37 16% 85 30.11 1018.2
19 11:53 N 5 10.00 Fair CLR 84.9 48 28% 83 30.13 1019.0
19 10:53 Vrbl 3 10.00 Fair CLR 80.1 50 81 60.1 35% 80 30.15 1019.8
19 09:53 Vrbl 5 10.00 Fair CLR 75.9 50 40% 78 30.17 1020.4
19 08:53 Vrbl 3 10.00 Fair CLR 71.1 50 47% 30.18 1020.9
19 07:53 N 5 10.00 Fair CLR 68 48.9 51% 30.18 1020.9
19 06:53 Calm 10.00 Fair CLR 64 50 60% 30.18 1020.6
19 05:53 NW 3 10.00 Fair CLR 61 48.9 65% 30.16 1020.1
19 04:53 NE 3 10.00 Fair CLR 62.1 48.9 78.1 62.1 62% 30.15 1019.7
19 03:53 Calm 10.00 Fair CLR 66 48.9 54% 30.14 1019.3
19 02:53 Calm 10.00 Fair CLR 69.1 48 47% 30.13 1018.8
19 01:53 Calm 10.00 Fair CLR 72 50 46% 30.12 1018.6
19 00:53 N 3 10.00 Fair CLR 75 51.1 43% 78 30.12 1018.6
18 23:53 N 3 10.00 Fair CLR 75 50 42% 78 30.11 1018.4
18 22:53 N 3 10.00 Fair CLR 78.1 50 98.1 77 37% 79 30.1 1018.0
18 21:53 N 5 10.00 Fair CLR 81 50 34% 80 30.08 1017.4
18 20:53 N 8 10.00 Fair CLR 84 48.9 30% 82 30.05 1016.3
18 19:53 N 14 10.00 Fair CLR 90 48.9 24% 87 30.02 1015.3
18 18:53 W 10 10.00 Fair CLR 95 39.9 15% 91 29.99 1014.3
18 17:53 W 10 10.00 Fair CLR 97 39 13% 92 29.98 1014.1
18 16:53 NW 7 10.00 Fair CLR 97 36 98.1 80.1 12% 92 29.99 1014.5
18 15:53 NW 9 10.00 Fair CLR 97 33.1 10% 92 30 1014.6
Date Time (pdt) Wind (mph) Vis. (mi.) Weather Sky Cond. Air Dwpt Max. Min. Relative Humidity Wind Chill (°F) Heat Index (°F) altimeter (in) sea level (mb) 1 hr 3 hr 6 hr
6 hour
Temperature (ºF) Pressure Precipitation (in)